Погода в Азовском

Россия / Республика Крым     45˚35′07″N   34˚34′01″E
темп.,
°C
ветер,
м/с
пор.,
м/с
влажн.,
%
обл.,
%
осадки,
мм/ч
давл.,
гПа
погр.,
м
5 декабря, сб
сб500:00+6˚в511900 0.0 1024288
03:00+5˚в511910 0.0 1024343
06:00+5˚в612910 0.0 1024416
09:00+6˚в7118518 0.0 1024555
12:00+7˚в81175100 0.0 1025645
15:00+6˚всв8117799 0.0 1024647
18:00+5˚всв81177100 0.0 1025727
21:00+6˚в81173100 0.0 1025795
6 декабря, вс
вс600:00+5˚в81175100 0.0 1025796
03:00+4˚в8127499 0.0 1026802
06:00+3˚в8127499 0.0 1025897
09:00+3˚в81273100 0.0 1026924
12:00+3˚в91370100 0.0 1026937
15:00+3˚всв91368100 0.0 1025967
18:00+3˚в91366100 0.0 10251031
21:00+2˚в8137091 0.0 1025917
7 декабря, пн
пн700:00+2˚в9127093 0.0 1025970
03:00+1˚в8127996 0.1 10241013
06:00+2˚в71286100 0.1 1024831
09:00+3˚в7128199 0.1 1023727
12:00+5˚в8117173 0.0 1023753
15:00+6˚в9126978 0.0 1022786
18:00+4˚в8157926 0.0 1022683
21:00+3˚в9158019 0.0 1022646
8 декабря, вт
вт800:00+3˚в8158321 0.0 1022620
03:00+3˚в9148243 0.0 1021627
06:00+3˚в7138592 0.0 1021516
09:00+3˚в8148069 0.0 1021470
12:00+6˚в9136671 0.0 1021545
15:00+6˚в9136882 0.0 1020542
18:00+5˚в8147599 0.0 1020537
21:00+5˚в7147597 0.0 1020498
9 декабря, ср
ср900:00+5˚в71377100 0.0 1020472
03:00+5˚в61184100 0.0 1020448
06:00+4˚всв4990100 0.0 1020362
09:00+5˚в4790100 0.0 1021345
12:00+9˚вюв577884 0.0 1022437
15:00+9˚в687147 0.0 1022452
18:00+6˚в611882 0.0 1023356
21:00+5˚в49861 0.0 1023266